K3JAR-3 Weather Reports


Display with metric or nautical units.
time (UTC)temp
F
wind
direction
speed
MPH
gust
MPH
rain 1hr
in
rain 24hr
in
rain mn
in
humidity
%
barometer
mb
20260502164026 72 330 4.0 7.0 0.00 0.00 0.00 44 1024.5
20260502163030 71 20 3.0 5.0 0.00 0.00 0.00 46 1024.4
20260502162016 71 312 4.0 7.0 0.00 0.00 0.00 47 1024.4
20260502161020 70 312 2.0 4.0 0.00 0.00 0.00 49 1024.4
20260502152106 67 266 3.0 5.0 0.00 0.00 0.00 60 1024.3
20260502151025 66 288 3.0 5.0 0.00 0.00 0.00 63 1024.3
20260502123016 51 274 0.0 1.0 0.00 0.00 0.00 91 1023.1
20260502122020 50 239 2.0 2.0 0.00 0.00 0.00 93 1023.0
20260502121024 49 261 2.0 2.0 0.00 0.00 0.00 97 1022.8
20260502115033 47 292 1.0 2.0 0.00 0.00 0.00 98 1022.2
20260502114059 48 265 0.0 1.0 0.00 0.00 0.00 98 1022.1
20260502113022 48 243 1.0 2.0 0.00 0.00 0.00 98 1021.9
20260502112026 48 215 0.0 2.0 0.00 0.00 0.00 98 1021.7
20260502111030 48 233 2.0 2.0 0.00 0.00 0.00 97 1021.7
20260502110016 48 214 2.0 2.0 0.00 0.00 0.00 97 1021.7
20260502105020 48 0.0 0.0 0.00 0.00 0.00 96 1021.4
20260502104043 49 0.0 0.0 0.00 0.00 0.00 95 1021.4
20260502103027 49 0.0 1.0 0.00 0.00 0.00 95 1021.4
20260502102031 50 289 1.0 3.0 0.00 0.00 0.00 95 1021.5
20260502101017 50 250 4.0 5.0 0.00 0.00 0.00 96 1021.7
20260502091016 50 271 1.0 2.0 0.00 0.00 0.00 96 1021.2
20260502071015 50 287 1.0 2.0 0.00 0.00 0.00 94 1021.2
20260502070019 50 272 1.0 2.0 0.00 0.00 0.00 93 1021.2
20260502065024 51 311 1.0 2.0 0.00 0.00 0.00 92 1021.2
20260502064027 52 270 0.0 2.0 0.00 0.00 0.00 90 1021.2
20260502063031 52 208 1.0 3.0 0.00 0.00 0.00 90 1021.2
20260502062017 52 230 2.0 3.0 0.00 0.00 0.00 91 1021.3
20260502061021 52 270 2.0 3.0 0.00 0.00 0.00 93 1021.4
20260502060029 52 270 1.0 2.0 0.00 0.00 0.00 93 1021.4
20260502055029 52 266 0.0 2.0 0.00 0.00 0.00 91 1021.5
20260502054032 52 270 0.0 1.0 0.00 0.00 0.00 91 1021.4
20260502053038 52 0.0 0.0 0.00 0.00 0.00 91 1021.3
20260502052102 52 0.0 0.0 0.00 0.00 0.00 91 1021.3
20260502051026 52 266 1.0 2.0 0.00 0.00 0.00 91 1021.4
20260502050024 53 0.0 0.0 0.00 0.00 0.00 89 1021.2
20260502045016 53 0.0 1.0 0.00 0.00 0.00 88 1021.2
20260502044141 53 0.0 0.0 0.00 0.00 0.00 87 1021.2
20260502043019 54 0.0 0.0 0.00 0.00 0.00 85 1021.2
20260502042016 54 0.0 0.0 0.00 0.00 0.00 83 1021.2
20260502041032 55 309 1.0 2.0 0.00 0.00 0.00 82 1021.2
20260502040018 55 310 1.0 2.0 0.00 0.00 0.00 81 1021.2
20260502035022 56 6 0.0 1.0 0.00 0.00 0.00 79 1021.0
20260502034026 56 33 2.0 2.0 0.00 0.00 0.00 78 1020.9
20260502033030 57 0.0 0.0 0.00 0.00 0.00 77 1020.9
20260502032015 57 23 1.0 2.0 0.00 0.00 0.00 76 1020.9
20260502031019 58 50 2.0 3.0 0.00 0.00 0.00 74 1020.8
20260502030023 58 68 2.0 3.0 0.00 0.00 0.00 74 1020.7
20260502025027 58 64 3.0 5.0 0.00 0.00 0.00 73 1020.5
20260502024031 59 45 2.0 3.0 0.00 0.00 0.00 73 1020.4
20260502023017 59 47 3.0 6.0 0.00 0.00 0.00 72 1020.4
20260502022021 58 47 3.0 4.0 0.00 0.00 0.00 73 1020.3
20260502021026 58 72 3.0 4.0 0.00 0.00 0.00 75 1020.1
20260502020029 58 74 3.0 4.0 0.00 0.00 0.00 75 1019.9
20260502015015 58 78 3.0 4.0 0.00 0.00 0.00 75 1019.6
20260502014019 58 75 3.0 5.0 0.00 0.00 0.00 74 1019.3
20260502013023 59 76 3.0 5.0 0.00 0.00 0.00 74 1019.2
20260502012027 59 85 4.0 5.0 0.00 0.00 0.00 75 1019.1
20260502011030 59 73 4.0 5.0 0.00 0.00 0.00 75 1018.9
20260502010042 59 75 3.0 4.0 0.00 0.00 0.00 74 1018.8
20260502005041 59 67 4.0 5.0 0.00 0.00 0.00 73 1018.4
20260502004024 60 58 4.0 5.0 0.00 0.00 0.00 72 1018.3
20260502003048 60 91 4.0 5.0 0.00 0.00 0.00 71 1018.3
20260502002026 60 90 4.0 6.0 0.00 0.00 0.00 70 1018.2
20260502001038 60 73 5.0 6.0 0.00 0.00 0.00 69 1018.1
20260502000022 61 85 6.0 7.0 0.00 0.00 0.00 68 1017.9
20260501235040 61 88 6.0 8.0 0.00 0.00 0.00 66 1018.2
20260501234018 62 85 6.0 9.0 0.00 0.00 0.00 66 1017.7
20260501233041 62 96 5.0 8.0 0.00 0.00 0.00 67 1017.6
20260501232020 62 79 6.0 8.0 0.00 0.00 0.00 65 1017.5
20260501231023 62 51 6.0 9.0 0.00 0.00 0.00 66 1017.5
20260501230027 62 62 5.0 8.0 0.00 0.00 0.00 65 1017.5
20260501225051 63 52 5.0 8.0 0.00 0.00 0.00 63 1017.3
20260501224016 63 31 6.0 9.0 0.00 0.00 0.00 63 1017.3
20260501223020 63 33 6.0 8.0 0.00 0.00 0.00 62 1017.2
20260501222044 63 25 7.0 10.0 0.00 0.00 0.00 62 1017.1
20260501221029 63 29 6.0 7.0 0.00 0.00 0.00 61 1017.1
20260501220138 63 11 7.0 11.0 0.00 0.00 0.00 61 1017.3
20260501215018 63 24 7.0 11.0 0.00 0.00 0.00 61 1017.3
20260501214022 63 37 7.0 10.0 0.00 0.00 0.00 59 1017.3
20260501213026 63 42 8.0 11.0 0.00 0.00 0.00 58 1017.3
20260501212030 63 44 8.0 11.0 0.00 0.00 0.00 57 1017.3
20260501211016 63 31 10.0 14.0 0.00 0.00 0.00 55 1017.3
20260501210040 64 30 10.0 16.0 0.00 0.00 0.00 53 1017.5
20260501205025 64 38 11.0 15.0 0.00 0.00 0.00 53 1017.3
20260501204027 63 34 11.0 14.0 0.00 0.00 0.00 54 1017.9
20260501203031 63 52 5.0 7.0 0.00 0.00 0.00 59 1018.1
20260501202017 63 61 6.0 9.0 0.00 0.00 0.00 59 1018.2
20260501201022 62 43 6.0 11.0 0.00 0.00 0.00 63 1018.4
20260501200025 62 64 3.0 4.0 0.00 0.00 0.00 62 1018.5
20260501195049 62 78 4.0 5.0 0.00 0.00 0.00 62 1018.3
20260501194055 62 94 6.0 8.0 0.00 0.00 0.00 61 1017.5
20260501193019 61 90 6.0 9.0 0.00 0.00 0.00 59 1017.0
20260501192043 61 54 8.0 11.0 0.00 0.00 0.00 58 1017.1
20260501191021 61 74 8.0 11.0 0.00 0.00 0.00 58 1017.5
20260501190019 61 61 6.0 8.0 0.00 0.00 0.00 57 1017.3
20260501185117 61 48 7.0 11.0 0.00 0.00 0.00 57 1018.1
20260501184025 62 56 6.0 9.0 0.00 0.00 0.00 58 1017.9
20260501183044 62 51 9.0 12.0 0.00 0.00 0.00 55 1018.1
20260501182029 62 68 10.0 15.0 0.00 0.00 0.00 56 1018.1
20260501181037 62 56 11.0 16.0 0.00 0.00 0.00 57 1018.1
20260501180023 63 46 11.0 16.0 0.00 0.00 0.00 57 1018.4